When you browse on this site, cookies collect data to enhance your experience and personalize the content and advertising you see.
Visit our Privacy Policy to learn more. By continuing to use the site, you agree to this use of cookies and data.
  • In United Kingdom
  • List of Countries
  • For 7 days
  • Water Temperature
  • Satellite Maps
  • Weather Map
  • Weather Widgets
  • user-avatar
    Login

    Hourly Weather Cepeleutsi

    Today, 20 February, Wednesday

    Time Temperature Precipitation Wind Pressure Humidity
    00:00 +3°C° 0 mm 2 mps 742 mmHg 91%
    01:00 +3°C° 0 mm 2 mps 742 mmHg 92%
    02:00 +3°C° 0 mm 1 mps 742 mmHg 92%
    03:00 +3°C° 0 mm 1 mps 741 mmHg 91%
    04:00 +3°C° 0 mm 1 mps 741 mmHg 91%
    05:00 +3°C° 0 mm 1 mps 741 mmHg 91%
    06:00 +3°C° 0 mm 1 mps 741 mmHg 90%
    07:00 +3°C° 0 mm 1 mps 741 mmHg 89%
    08:00 +2°C° 0 mm 2 mps 741 mmHg 88%
    09:00 +3°C° 0 mm 3 mps 741 mmHg 82%
    10:00 +4°C° 0 mm 4 mps 741 mmHg 76%
    11:00 +5°C° 0 mm 6 mps 742 mmHg 71%
    12:00 +5°C° 0 mm 6 mps 742 mmHg 71%
    13:00 +5°C° 0 mm 6 mps 742 mmHg 71%
    14:00 +5°C° 0 mm 7 mps 742 mmHg 70%
    15:00 +5°C° 0 mm 6 mps 742 mmHg 70%
    16:00 +4°C° 0 mm 6 mps 742 mmHg 70%
    17:00 +4°C° 0 mm 6 mps 742 mmHg 70%
    18:00 +3°C° 0 mm 5 mps 743 mmHg 72%
    19:00 +2°C° 0 mm 5 mps 743 mmHg 74%
    20:00 +3°C° 0 mm 4 mps 744 mmHg 76%
    21:00 +2°C° 0 mm 5 mps 744 mmHg 76%
    22:00 +2°C° 0 mm 5 mps 744 mmHg 75%
    23:00 +1°C° 0 mm 5 mps 744 mmHg 75%

    Tomorrow, 21 February, Thursday

    Time Temperature Precipitation Wind Pressure Humidity
    00:00 +1°C° 0 mm 5 mps 744 mmHg 74%
    01:00 +1°C° 0 mm 6 mps 744 mmHg 74%
    02:00 +1°C° 0 mm 6 mps 744 mmHg 74%
    03:00 +1°C° 0 mm 6 mps 744 mmHg 75%
    04:00 +1°C° 0 mm 6 mps 744 mmHg 77%
    05:00 -1°C° 0 mm 6 mps 744 mmHg 79%
    06:00 -1°C° 0 mm 6 mps 745 mmHg 80%
    07:00 -1°C° 0 mm 6 mps 745 mmHg 82%
    08:00 -1°C° 0 mm 6 mps 745 mmHg 83%
    09:00 0°C° 0 mm 7 mps 745 mmHg 77%
    10:00 +2°C° 0 mm 7 mps 745 mmHg 71%
    11:00 +2°C° 0 mm 8 mps 746 mmHg 65%
    12:00 +2°C° 0 mm 8 mps 745 mmHg 63%
    13:00 +2°C° 0 mm 8 mps 745 mmHg 61%
    14:00 +4°C° 0 mm 8 mps 745 mmHg 59%
    15:00 +4°C° 0 mm 7 mps 745 mmHg 61%
    16:00 +3°C° 0 mm 6 mps 745 mmHg 64%
    17:00 +3°C° 0 mm 5 mps 745 mmHg 67%
    18:00 +4°C° 0 mm 4 mps 745 mmHg 72%
    19:00 +4°C° 0 mm 4 mps 745 mmHg 77%
    20:00 +3°C° 0 mm 3 mps 745 mmHg 83%
    21:00 +3°C° 0.1 mm 3 mps 745 mmHg 83%
    22:00 +3°C° 0.1 mm 3 mps 744 mmHg 84%
    23:00 +3°C° 0.1 mm 3 mps 744 mmHg 84%

    Day after tomorrow, 22 February, Friday

    Time Temperature Precipitation Wind Pressure Humidity
    00:00 +3°C° 0.6 mm 3 mps 744 mmHg 83%
    01:00 +3°C° 0.6 mm 3 mps 743 mmHg 82%
    02:00 +2°C° 0.6 mm 3 mps 743 mmHg 81%
    03:00 +2°C° 0.7 mm 3 mps 742 mmHg 83%
    04:00 +2°C° 0.7 mm 3 mps 741 mmHg 85%
    05:00 +2°C° 0.7 mm 3 mps 741 mmHg 86%
    06:00 +2°C° 0.3 mm 3 mps 740 mmHg 87%
    07:00 +1°C° 0.3 mm 4 mps 740 mmHg 87%
    08:00 +3°C° 0.3 mm 4 mps 740 mmHg 87%
    09:00 0°C° 0.2 mm 5 mps 741 mmHg 85%
    10:00 -2°C° 0.2 mm 7 mps 741 mmHg 83%
    11:00 -4°C° 0.2 mm 8 mps 741 mmHg 81%
    12:00 -4°C° 0.3 mm 8 mps 742 mmHg 79%
    13:00 -5°C° 0.3 mm 8 mps 743 mmHg 77%
    14:00 -6°C° 0.3 mm 8 mps 744 mmHg 75%
    15:00 -6°C° 0.1 mm 8 mps 745 mmHg 70%
    16:00 -7°C° 0.1 mm 8 mps 746 mmHg 65%
    17:00 -7°C° 0.1 mm 8 mps 747 mmHg 59%
    18:00 -8°C° 0 mm 8 mps 748 mmHg 57%
    19:00 -10°C° 0 mm 8 mps 748 mmHg 56%
    20:00 -10°C° 0 mm 8 mps 749 mmHg 54%
    21:00 -10°C° 0 mm 8 mps 750 mmHg 53%
    22:00 -11°C° 0 mm 8 mps 750 mmHg 51%
    23:00 -11°C° 0 mm 7 mps 751 mmHg 50%

    23 February, Saturday

    Time Temperature Precipitation Wind Pressure Humidity
    00:00 -11°C° 0 mm 7 mps 751 mmHg 50%
    01:00 -11°C° 0 mm 7 mps 751 mmHg 50%
    02:00 -11°C° 0 mm 7 mps 751 mmHg 50%
    03:00 -11°C° 0 mm 7 mps 751 mmHg 50%
    04:00 -11°C° 0 mm 8 mps 752 mmHg 50%
    05:00 -11°C° 0 mm 8 mps 752 mmHg 49%
    06:00 -11°C° 0 mm 7 mps 752 mmHg 50%
    07:00 -11°C° 0 mm 7 mps 753 mmHg 51%
    08:00 -11°C° 0 mm 7 mps 753 mmHg 51%
    09:00 -11°C° 0 mm 7 mps 754 mmHg 51%
    10:00 -11°C° 0 mm 7 mps 754 mmHg 50%
    11:00 -9°C° 0 mm 7 mps 754 mmHg 50%
    12:00 -9°C° 0 mm 7 mps 754 mmHg 50%
    13:00 -9°C° 0 mm 7 mps 754 mmHg 50%
    14:00 -8°C° 0 mm 7 mps 754 mmHg 50%
    15:00 -8°C° 0 mm 7 mps 754 mmHg 53%
    16:00 -9°C° 0 mm 7 mps 754 mmHg 55%
    17:00 -9°C° 0 mm 7 mps 754 mmHg 58%
    18:00 -9°C° 0 mm 6 mps 754 mmHg 59%
    19:00 -9°C° 0 mm 6 mps 755 mmHg 60%
    20:00 -9°C° 0 mm 6 mps 755 mmHg 62%
    21:00 -9°C° 0 mm 6 mps 755 mmHg 61%
    22:00 -9°C° 0 mm 6 mps 755 mmHg 60%
    23:00 -9°C° 0 mm 6 mps 755 mmHg 59%

    24 February, Sunday

    Time Temperature Precipitation Wind Pressure Humidity
    00:00 -10°C° 0 mm 5 mps 755 mmHg 60%
    01:00 -10°C° 0 mm 5 mps 755 mmHg 60%
    02:00 -10°C° 0 mm 5 mps 755 mmHg 61%
    03:00 -10°C° 0 mm 5 mps 755 mmHg 62%
    04:00 -11°C° 0 mm 5 mps 754 mmHg 62%
    05:00 -11°C° 0 mm 5 mps 754 mmHg 63%
    06:00 -11°C° 0 mm 5 mps 754 mmHg 63%
    07:00 -11°C° 0 mm 5 mps 755 mmHg 63%
    08:00 -11°C° 0 mm 5 mps 755 mmHg 62%
    09:00 -10°C° 0 mm 5 mps 755 mmHg 58%
    10:00 -8°C° 0 mm 5 mps 755 mmHg 53%
    11:00 -7°C° 0 mm 4 mps 755 mmHg 48%
    12:00 -7°C° 0 mm 4 mps 754 mmHg 45%
    13:00 -5°C° 0 mm 4 mps 754 mmHg 42%
    14:00 -4°C° 0 mm 4 mps 754 mmHg 40%
    15:00 -4°C° 0 mm 4 mps 754 mmHg 41%
    16:00 -4°C° 0 mm 4 mps 754 mmHg 43%
    17:00 -4°C° 0 mm 4 mps 754 mmHg 45%
    18:00 -5°C° 0 mm 3 mps 754 mmHg 51%
    19:00 -5°C° 0 mm 3 mps 754 mmHg 58%
    20:00 -4°C° 0 mm 2 mps 754 mmHg 64%
    21:00 -4°C° 0 mm 2 mps 755 mmHg 66%
    22:00 -4°C° 0 mm 2 mps 755 mmHg 68%
    23:00 -4°C° 0 mm 2 mps 755 mmHg 70%

    25 February, Monday

    Time Temperature Precipitation Wind Pressure Humidity
    00:00 -4°C° 0 mm 2 mps 755 mmHg 70%
    01:00 -4°C° 0 mm 2 mps 754 mmHg 70%
    02:00 -4°C° 0 mm 2 mps 754 mmHg 71%
    03:00 -4°C° 0 mm 2 mps 754 mmHg 72%
    04:00 -4°C° 0 mm 2 mps 754 mmHg 74%
    05:00 -4°C° 0 mm 2 mps 754 mmHg 76%
    06:00 -4°C° 0 mm 2 mps 754 mmHg 78%
    07:00 -4°C° 0 mm 2 mps 753 mmHg 79%
    08:00 -4°C° 0 mm 2 mps 753 mmHg 81%
    09:00 -4°C° 0 mm 3 mps 753 mmHg 79%
    10:00 -2°C° 0 mm 3 mps 753 mmHg 77%
    11:00 -2°C° 0 mm 4 mps 752 mmHg 75%
    12:00 -2°C° 0 mm 4 mps 752 mmHg 73%
    13:00 -1°C° 0 mm 4 mps 751 mmHg 70%
    14:00 -1°C° 0 mm 4 mps 751 mmHg 68%
    15:00 -1°C° 0 mm 4 mps 750 mmHg 71%
    16:00 -1°C° 0 mm 4 mps 749 mmHg 73%
    17:00 0°C° 0 mm 3 mps 749 mmHg 75%
    18:00 -1°C° 0 mm 4 mps 748 mmHg 78%
    19:00 -1°C° 0 mm 4 mps 748 mmHg 81%
    20:00 -1°C° 0 mm 4 mps 748 mmHg 84%
    21:00 -1°C° 0.1 mm 4 mps 747 mmHg 86%
    22:00 -1°C° 0.1 mm 5 mps 747 mmHg 88%
    23:00 -1°C° 0.1 mm 5 mps 746 mmHg 89%
    Show more